Location: Kellogg
(38.0159°N, 90.0546°W)
Time: 01:29:25
(UTC+00:00)

Vanguard 2 - Pass Details

Date: 20 September 2024
Orbit: 552 x 2910 km, 32.9° (Epoch: 15 October)

Event Time Altitude Azimuth Distance (km) Brightness Sun altitude
Rises 11:57:11 0° 269° (W) 3,273 10.0 1.2°
Reaches altitude 10° 11:59:23 10° 261° (W) 2,543 9.6 1.6°
Maximum altitude 12:05:02 40° 194° (SSW) 1,690 9.2 2.8°
Drops below altitude 10° 12:13:57 10° 130° (SE) 4,019 12.2 4.5°
Sets 12:18:22 0° 124° (ESE) 5,424 13.0 5.4°
